Content
SEND FEEDBACK

Daily
Averages
Monthly
Summary
United States of America

CHICAGO, ILLINOIS


Home > North America > United States > Illinois
Elevation: 674 feet     Latitude: 41 59N     Longitude: 087 54W

WEATHER
 
SELECT A DAY
Number of Records: 194,984;   Date Range: 7/8/95 - 8/28/14
 
SHARE

PRINT THIS DATA

[ ← Previous Day ]
WEATHER ALMANAC - MARCH 6, 2014
[ Next Day → ]
[ °C ]   °F
Weather ElementAverageHighLow
Temperature21.3 °F28.9 °F (1:52 pm)16 °F (5:52 am)
Dewpoint12.3 °F16 °F (2:52 pm)9 °F (7:52 am)
Humidity68.8 %78 % (8:52 pm)53 % (12:52 pm)
Barometer30.30 in30.46 in (1:52 am)30.11 in (11:52 pm)
Wind Speed4.4 mph10.4 mph (7:52 am)
Weather ElementAverage
Visibility10 mi
Wind DirectionENE (83.9 °)

Weather ElementTotal
Precipitation---
Heating Degree Days42.6 (Base 65)
Averaged from 23 records on March 6, 2014
WEATHER CONDITIONS BREAKOUT
WIND DIRECTION BREAKOUT
WEATHER BY HOUR - MARCH 6, 2014
[ °C ]   °F
Local TimeTemperatureDewpointHumidityBarometerVisibilityWind DirectionWind SpeedGust SpeedPrecipitationEventsConditions
1:52 AM18.0 °F10.9 °F74 %30.46 in10.0 miEast (100°)4.6 mphClear
2:52 AM17.1 °F10.9 °F77 %30.46 in10.0 miEast (80°)5.8 mphClear
3:52 AM17.1 °F10.0 °F74 %30.44 in10.0 miEast (90°)4.6 mphClear
4:52 AM17.1 °F10.0 °F74 %30.44 in10.0 miEast (80°)5.8 mphClear
5:52 AM16.0 °F10.0 °F77 %30.41 in10.0 miEast (90°)4.6 mphClear
6:52 AM16.0 °F10.0 °F77 %30.42 in10.0 miEast (80°)4.6 mphClear
7:52 AM17.1 °F9.0 °F71 %30.41 in10.0 miEast (100°)10.4 mphClear
8:52 AM19.0 °F9.0 °F65 %30.39 in10.0 miEast (100°)8.1 mphClear
9:52 AM19.9 °F10.0 °F65 %30.37 in10.0 miSE (130°)4.6 mphClear
10:52 AM21.9 °F10.9 °F63 %30.37 in10.0 miCalmClear
11:52 AM26.1 °F12.0 °F55 %30.32 in10.0 miCalmClear
12:52 PM28.0 °F12.9 °F53 %30.30 in10.0 miCalmClear
1:52 PM28.9 °F14.0 °F54 %30.26 in10.0 miCalmClear
2:52 PM28.0 °F16.0 °F61 %30.24 in10.0 miENE (60°)8.1 mphClear
3:52 PM26.1 °F16.0 °F66 %30.23 in10.0 miVariable5.8 mphClear
4:52 PM27.0 °F16.0 °F63 %30.20 in10.0 miESE (110°)3.5 mphClear
5:52 PM26.1 °F15.1 °F63 %30.20 in10.0 miENE (60°)4.6 mphClear
6:52 PM24.1 °F15.1 °F69 %30.17 in10.0 miEast (100°)3.5 mphClear
7:52 PM21.0 °F14.0 °F74 %30.18 in10.0 miSE (130°)3.5 mphClear
8:52 PM19.9 °F14.0 °F78 %30.17 in10.0 miSE (140°)3.5 mphClear
9:52 PM19.0 °F12.0 °F74 %30.16 in10.0 miSSE (150°)5.8 mphClear
10:52 PM18.0 °F12.0 °F78 %30.15 in10.0 miSSE (160°)3.5 mphClear
11:52 PM18.0 °F12.0 °F78 %30.11 in9.0 miSouth (170°)5.8 mphClear
Hourly data recorded from KPWK, located miles away from Chicago, Illinois







STORIES FROM OUR PARTNERS